TVS99D EBBR-LKPR

Flight info

Callsign TVS99D
Flight time N/A
Altitude 35000
Route SOPOK Y863 OGLOR DCT EMGOD DCT BOMBI DCT BOREP DCT TONSU Z35 ODOMO DCT LOMKI
Aircraft B738/M-SDFGHIJ1LORVWXYZ/LB1

Departure

Time 2026-05-08 07:06
Airport Brussels Airport (EBBR)

Arrival

Time N/A
Airport Václav Havel Airport Prague (LKPR)
Time Latitude Longitude Altitude Speed Heading
2026-05-08 06:18 50.90258 4.48521 117 ft 0 kts 335°
2026-05-08 06:54 50.90257 4.48522 120 ft 2 kts 335°
2026-05-08 06:55 50.90239 4.48535 119 ft 3 kts 336°
2026-05-08 06:55 50.90220 4.48548 117 ft 3 kts 337°
2026-05-08 06:55 50.90202 4.48560 118 ft 3 kts 344°
2026-05-08 06:55 50.90189 4.48563 119 ft 1 kts 17°
2026-05-08 06:56 50.90181 4.48556 119 ft 2 kts 56°
2026-05-08 06:56 50.90176 4.48544 122 ft 3 kts 66°
2026-05-08 06:56 50.90183 4.48568 120 ft 1 kts 66°
2026-05-08 06:56 50.90187 4.48579 120 ft 1 kts 65°
2026-05-08 06:57 50.90189 4.48588 121 ft 0 kts 65°
2026-05-08 06:59 50.90192 4.48596 121 ft 3 kts 64°
2026-05-08 06:59 50.90208 4.48650 121 ft 9 kts 65°
2026-05-08 06:59 50.90244 4.48776 119 ft 15 kts 65°
2026-05-08 06:59 50.90290 4.48935 121 ft 16 kts 65°
2026-05-08 07:00 50.90336 4.49095 123 ft 16 kts 65°
2026-05-08 07:00 50.90380 4.49246 123 ft 15 kts 65°
2026-05-08 07:00 50.90422 4.49395 122 ft 15 kts 65°
2026-05-08 07:00 50.90447 4.49541 123 ft 14 kts 117°
2026-05-08 07:01 50.90377 4.49593 122 ft 11 kts 213°
2026-05-08 07:01 50.90291 4.49526 123 ft 17 kts 194°
2026-05-08 07:01 50.90167 4.49477 128 ft 19 kts 194°
2026-05-08 07:01 50.90042 4.49423 130 ft 18 kts 195°
2026-05-08 07:02 50.89921 4.49374 135 ft 18 kts 194°
2026-05-08 07:02 50.89804 4.49329 142 ft 17 kts 193°
2026-05-08 07:02 50.89691 4.49286 149 ft 16 kts 196°
2026-05-08 07:02 50.89606 4.49229 154 ft 13 kts 215°
2026-05-08 07:03 50.89526 4.49173 158 ft 13 kts 194°
2026-05-08 07:03 50.89443 4.49140 162 ft 12 kts 194°
2026-05-08 07:03 50.89375 4.49138 165 ft 6 kts 140°
2026-05-08 07:03 50.89370 4.49150 165 ft 0 kts 120°
2026-05-08 07:04 50.89364 4.49151 165 ft 1 kts 175°
2026-05-08 07:04 50.89342 4.49125 166 ft 8 kts 216°
2026-05-08 07:04 50.89265 4.49067 169 ft 17 kts 197°
2026-05-08 07:04 50.89160 4.49059 175 ft 10 kts 142°
2026-05-08 07:05 50.89151 4.49105 175 ft 7 kts 79°
2026-05-08 07:05 50.89156 4.49130 175 ft 1 kts 70°
2026-05-08 07:05 50.89207 4.49351 175 ft 61 kts 70°
2026-05-08 07:05 50.89457 4.50432 175 ft 144 kts 70°
2026-05-08 07:06 50.89884 4.52216 492 ft 189 kts 70°
2026-05-08 07:06 50.90367 4.54113 1830 ft 182 kts 63°
2026-05-08 07:06 50.90985 4.55907 2905 ft 193 kts 62°
2026-05-08 07:06 50.91643 4.57889 3457 ft 214 kts 63°
2026-05-08 07:07 50.92344 4.60060 3988 ft 227 kts 63°
2026-05-08 07:07 50.93089 4.62301 4709 ft 234 kts 63°
2026-05-08 07:07 50.93868 4.64754 5093 ft 261 kts 70°
2026-05-08 07:07 50.94383 4.67527 6032 ft 265 kts 76°
2026-05-08 07:08 50.94884 4.70375 6913 ft 269 kts 74°
2026-05-08 07:08 50.95430 4.73252 7758 ft 276 kts 74°
2026-05-08 07:08 50.95695 4.76304 8470 ft 284 kts 98°
2026-05-08 07:08 50.94988 4.79197 9322 ft 286 kts 129°
2026-05-08 07:09 50.93508 4.81292 10240 ft 286 kts 146°
2026-05-08 07:09 50.91837 4.83037 11078 ft 290 kts 146°
2026-05-08 07:09 50.90219 4.84978 11884 ft 294 kts 143°
2026-05-08 07:09 50.88393 4.86542 12323 ft 310 kts 167°
2026-05-08 07:10 50.86193 4.86902 12664 ft 328 kts 179°
2026-05-08 07:10 50.83875 4.87110 13276 ft 337 kts 176°
2026-05-08 07:10 50.81519 4.87480 14081 ft 341 kts 174°
2026-05-08 07:10 50.79166 4.87990 14873 ft 343 kts 173°
2026-05-08 07:11 50.76805 4.88611 15651 ft 345 kts 172°
2026-05-08 07:11 50.74408 4.89269 16161 ft 357 kts 172°
2026-05-08 07:11 50.71901 4.89933 16584 ft 367 kts 172°
2026-05-08 07:11 50.69440 4.90638 17810 ft 358 kts 167°
2026-05-08 07:12 50.67179 4.92290 18259 ft 373 kts 145°
2026-05-08 07:12 50.65406 4.95313 18808 ft 382 kts 121°
2026-05-08 07:12 50.64502 4.99204 19775 ft 373 kts 103°
2026-05-08 07:12 50.63904 5.03157 20662 ft 371 kts 107°
2026-05-08 07:13 50.63181 5.07106 21112 ft 380 kts 109°
2026-05-08 07:13 50.62316 5.11093 21428 ft 391 kts 111°
2026-05-08 07:13 50.61392 5.15140 22064 ft 392 kts 111°
2026-05-08 07:13 50.60487 5.19223 22571 ft 398 kts 110°
2026-05-08 07:14 50.59617 5.23383 23112 ft 403 kts 109°
2026-05-08 07:14 50.58729 5.27587 23639 ft 406 kts 114°
2026-05-08 07:14 50.57202 5.31274 24138 ft 402 kts 137°
2026-05-08 07:14 50.55121 5.34175 24685 ft 401 kts 142°
2026-05-08 07:15 50.52985 5.37038 25118 ft 406 kts 141°
2026-05-08 07:15 50.50846 5.39980 25468 ft 411 kts 140°
2026-05-08 07:15 50.48716 5.42986 26009 ft 411 kts 140°
2026-05-08 07:15 50.46620 5.46012 26707 ft 408 kts 139°
2026-05-08 07:16 50.44534 5.49087 26964 ft 416 kts 139°
2026-05-08 07:16 50.42438 5.52224 27421 ft 417 kts 138°
2026-05-08 07:16 50.40319 5.55379 27773 ft 422 kts 139°
2026-05-08 07:16 50.38165 5.58553 28082 ft 427 kts 139°
2026-05-08 07:17 50.35987 5.61746 28459 ft 430 kts 139°
2026-05-08 07:17 50.33799 5.64947 28873 ft 432 kts 139°
2026-05-08 07:17 50.31597 5.68168 29287 ft 434 kts 139°
2026-05-08 07:17 50.29386 5.71397 29640 ft 437 kts 139°
2026-05-08 07:18 50.27245 5.74792 29964 ft 442 kts 131°
2026-05-08 07:18 50.25501 5.78778 30295 ft 446 kts 121°
2026-05-08 07:18 50.24207 5.83191 30670 ft 449 kts 110°
2026-05-08 07:18 50.23364 5.87886 31084 ft 449 kts 106°
2026-05-08 07:19 50.22616 5.92620 31443 ft 449 kts 105°
2026-05-08 07:19 50.21870 5.97361 31769 ft 450 kts 106°
2026-05-08 07:19 50.21110 6.02041 32106 ft 450 kts 107°
2026-05-08 07:19 50.20308 6.06831 32474 ft 450 kts 107°
2026-05-08 07:20 50.19503 6.11549 32845 ft 450 kts 107°
2026-05-08 07:20 50.18742 6.16278 33174 ft 451 kts 102°
2026-05-08 07:20 50.18371 6.21084 33498 ft 454 kts 94°
2026-05-08 07:20 50.18484 6.26015 33832 ft 455 kts 86°
2026-05-08 07:21 50.18813 6.30931 34139 ft 456 kts 85°
2026-05-08 07:21 50.19173 6.35852 34411 ft 456 kts 85°
2026-05-08 07:21 50.19520 6.40765 34682 ft 456 kts 85°
2026-05-08 07:21 50.19846 6.45692 34957 ft 456 kts 85°
2026-05-08 07:22 50.20154 6.50626 35092 ft 459 kts 85°
2026-05-08 07:22 50.20454 6.55593 35075 ft 459 kts 85°
2026-05-08 07:22 50.21005 6.65487 35071 ft 455 kts 90°
2026-05-08 07:23 50.20906 6.75330 35094 ft 453 kts 94°
2026-05-08 07:23 50.20644 6.85135 35100 ft 452 kts 94°
2026-05-08 07:24 50.20423 6.94940 35104 ft 452 kts 93°
2026-05-08 07:24 50.20229 7.04747 35104 ft 452 kts 93°
2026-05-08 07:25 50.20032 7.14574 35106 ft 453 kts 93°
2026-05-08 07:26 50.19718 7.29345 35105 ft 455 kts 93°
2026-05-08 07:26 50.19196 7.39171 35120 ft 454 kts 99°
2026-05-08 07:27 50.18283 7.48929 35107 ft 455 kts 100°
2026-05-08 07:27 50.17343 7.58699 35108 ft 456 kts 100°
2026-05-08 07:28 50.16430 7.68487 35114 ft 456 kts 99°
2026-05-08 07:28 50.15533 7.78226 35116 ft 456 kts 99°
2026-05-08 07:29 50.14619 7.88092 35118 ft 457 kts 99°
2026-05-08 07:29 50.13702 7.97883 35117 ft 456 kts 99°
2026-05-08 07:30 50.12783 8.07601 35118 ft 456 kts 100°
2026-05-08 07:30 50.11851 8.17362 35119 ft 455 kts 100°
2026-05-08 07:31 50.10912 8.27110 35124 ft 455 kts 100°
2026-05-08 07:31 50.09965 8.36847 35124 ft 454 kts 100°
2026-05-08 07:32 50.09012 8.46561 35124 ft 454 kts 100°
2026-05-08 07:32 50.08053 8.56262 35137 ft 453 kts 100°
2026-05-08 07:33 50.07084 8.65966 35127 ft 453 kts 100°
2026-05-08 07:33 50.06109 8.75662 35132 ft 454 kts 100°
2026-05-08 07:34 50.05333 8.85386 35131 ft 455 kts 95°
2026-05-08 07:34 50.04935 8.95214 35124 ft 455 kts 94°
2026-05-08 07:35 50.04566 9.05051 35120 ft 456 kts 95°
2026-05-08 07:35 50.04154 9.14898 35117 ft 457 kts 95°
2026-05-08 07:36 50.03712 9.24758 35111 ft 457 kts 95°
2026-05-08 07:36 50.03255 9.34628 35116 ft 457 kts 95°
2026-05-08 07:37 50.02791 9.44497 35106 ft 458 kts 95°
2026-05-08 07:37 50.02319 9.54359 35101 ft 458 kts 95°
2026-05-08 07:38 50.01839 9.64239 35108 ft 458 kts 95°
2026-05-08 07:38 50.01351 9.74098 35107 ft 457 kts 95°
2026-05-08 07:39 50.00854 9.83956 35113 ft 457 kts 95°
2026-05-08 07:39 50.00350 9.93809 35115 ft 457 kts 95°
2026-05-08 07:40 49.99837 10.03658 35120 ft 457 kts 95°
2026-05-08 07:40 49.99316 10.13496 35124 ft 456 kts 96°
2026-05-08 07:41 49.98788 10.23316 35125 ft 456 kts 96°
2026-05-08 07:41 49.98252 10.33141 35120 ft 456 kts 96°
2026-05-08 07:42 49.97707 10.42966 35122 ft 456 kts 96°
2026-05-08 07:42 49.97155 10.52784 35124 ft 456 kts 96°
2026-05-08 07:43 49.96604 10.62542 35121 ft 457 kts 94°
2026-05-08 07:43 49.96550 10.72412 35127 ft 457 kts 89°
2026-05-08 07:44 49.96703 10.82284 35119 ft 458 kts 89°
2026-05-08 07:44 49.96812 10.92175 35119 ft 458 kts 90°
2026-05-08 07:45 49.96876 11.02078 35109 ft 459 kts 90°
2026-05-08 07:45 49.96925 11.11975 35111 ft 459 kts 90°
2026-05-08 07:46 49.96970 11.21892 35114 ft 459 kts 90°
2026-05-08 07:46 49.96763 11.31802 35112 ft 458 kts 94°
2026-05-08 07:47 49.96394 11.41681 35105 ft 458 kts 94°
2026-05-08 07:47 49.96057 11.51530 34750 ft 453 kts 93°
2026-05-08 07:47 49.95899 11.56387 34508 ft 447 kts 93°
2026-05-08 07:48 49.95741 11.61179 34271 ft 443 kts 94°
2026-05-08 07:48 49.95580 11.65938 34024 ft 440 kts 94°
2026-05-08 07:48 49.95416 11.70665 33746 ft 438 kts 94°
2026-05-08 07:48 49.95251 11.75374 33474 ft 435 kts 94°
2026-05-08 07:49 49.95085 11.80062 33204 ft 433 kts 94°
2026-05-08 07:49 49.94920 11.84721 32935 ft 432 kts 94°
2026-05-08 07:49 49.94753 11.89365 32668 ft 430 kts 94°
2026-05-08 07:49 49.94587 11.93984 32403 ft 428 kts 93°
2026-05-08 07:50 49.94465 11.98592 32144 ft 427 kts 92°
2026-05-08 07:50 49.94378 12.03132 31882 ft 425 kts 92°
2026-05-08 07:50 49.94297 12.07718 31633 ft 424 kts 92°
2026-05-08 07:50 49.94212 12.12288 31380 ft 423 kts 92°
2026-05-08 07:51 49.94120 12.16835 31123 ft 421 kts 92°
2026-05-08 07:51 49.94023 12.21372 30873 ft 419 kts 92°
2026-05-08 07:51 49.93924 12.25881 30629 ft 418 kts 92°
2026-05-08 07:51 49.93822 12.30378 30379 ft 415 kts 92°
2026-05-08 07:52 49.93753 12.33377 30168 ft 409 kts 92°
2026-05-08 07:52 49.93646 12.37717 29802 ft 406 kts 92°
2026-05-08 07:52 49.93526 12.42068 29433 ft 402 kts 93°
2026-05-08 07:52 49.93402 12.46378 29033 ft 398 kts 93°
2026-05-08 07:53 49.93277 12.50654 28667 ft 395 kts 93°
2026-05-08 07:53 49.93152 12.54901 28280 ft 391 kts 93°
2026-05-08 07:53 49.93027 12.59100 27911 ft 388 kts 93°
2026-05-08 07:53 49.92903 12.63274 27537 ft 386 kts 93°
2026-05-08 07:54 49.92779 12.67422 27163 ft 383 kts 93°
2026-05-08 07:54 49.92654 12.71544 26804 ft 381 kts 93°
2026-05-08 07:54 49.92528 12.75634 26445 ft 378 kts 93°
2026-05-08 07:54 49.92402 12.79697 26085 ft 376 kts 93°
2026-05-08 07:55 49.92276 12.83736 25724 ft 374 kts 93°
2026-05-08 07:55 49.92148 12.87758 25375 ft 372 kts 93°
2026-05-08 07:55 49.92020 12.91765 25021 ft 370 kts 93°
2026-05-08 07:55 49.91893 12.95697 24669 ft 369 kts 94°
2026-05-08 07:56 49.91763 12.99659 24321 ft 367 kts 94°
2026-05-08 07:56 49.91723 13.03610 23914 ft 367 kts 85°
2026-05-08 07:56 49.92202 13.07501 23461 ft 368 kts 72°
2026-05-08 07:56 49.92967 13.11278 23069 ft 366 kts 71°
2026-05-08 07:57 49.93762 13.15014 22701 ft 363 kts 71°
2026-05-08 07:57 49.94552 13.18719 22342 ft 360 kts 71°
2026-05-08 07:57 49.95329 13.22406 21987 ft 358 kts 71°
2026-05-08 07:57 49.96091 13.26076 21600 ft 356 kts 71°
2026-05-08 07:58 49.96843 13.29731 21244 ft 354 kts 72°
2026-05-08 07:58 49.97585 13.33365 20901 ft 352 kts 72°
2026-05-08 07:58 49.98320 13.36984 20560 ft 350 kts 72°
2026-05-08 07:58 49.99046 13.40574 20215 ft 348 kts 72°
2026-05-08 07:59 49.99770 13.44160 19871 ft 346 kts 72°
2026-05-08 07:59 50.00489 13.47728 19533 ft 345 kts 72°
2026-05-08 07:59 50.01203 13.51279 19196 ft 343 kts 72°
2026-05-08 07:59 50.01911 13.54807 18862 ft 341 kts 72°
2026-05-08 08:00 50.02616 13.58326 18532 ft 340 kts 72°
2026-05-08 08:00 50.03317 13.61831 18184 ft 338 kts 72°
2026-05-08 08:00 50.04013 13.65318 17825 ft 336 kts 72°
2026-05-08 08:00 50.04703 13.68782 17486 ft 334 kts 72°
2026-05-08 08:01 50.05388 13.72224 17133 ft 332 kts 72°
2026-05-08 08:01 50.06068 13.75647 16797 ft 331 kts 72°
2026-05-08 08:01 50.06745 13.79063 16451 ft 329 kts 72°
2026-05-08 08:01 50.07416 13.82451 16121 ft 327 kts 72°
2026-05-08 08:02 50.08010 13.85862 15794 ft 326 kts 77°
2026-05-08 08:02 50.08434 13.89311 15480 ft 324 kts 79°
2026-05-08 08:02 50.08799 13.92722 15162 ft 322 kts 80°
2026-05-08 08:02 50.09161 13.96160 14844 ft 321 kts 80°
2026-05-08 08:03 50.09527 13.99581 14547 ft 319 kts 79°
2026-05-08 08:03 50.09897 14.02975 14221 ft 318 kts 79°
2026-05-08 08:03 50.10271 14.06362 13911 ft 316 kts 79°
2026-05-08 08:03 50.10645 14.09729 13591 ft 314 kts 79°
2026-05-08 08:04 50.11019 14.13080 13280 ft 312 kts 79°
2026-05-08 08:04 50.11391 14.16403 12976 ft 310 kts 79°
2026-05-08 08:04 50.11758 14.19701 12658 ft 308 kts 79°
2026-05-08 08:04 50.12124 14.22987 12350 ft 307 kts 79°
2026-05-08 08:05 50.12487 14.26252 12049 ft 305 kts 79°
2026-05-08 08:05 50.12847 14.29495 11746 ft 303 kts 79°
2026-05-08 08:05 50.13203 14.32720 11442 ft 301 kts 79°
2026-05-08 08:05 50.13555 14.35924 11145 ft 299 kts 80°
2026-05-08 08:06 50.13586 14.39135 10796 ft 298 kts 103°
2026-05-08 08:06 50.12793 14.42073 10567 ft 293 kts 124°
2026-05-08 08:06 50.11602 14.44586 10398 ft 286 kts 128°
2026-05-08 08:06 50.10383 14.47012 10171 ft 282 kts 129°
2026-05-08 08:07 50.09180 14.49425 9851 ft 282 kts 128°
2026-05-08 08:07 50.07992 14.51837 9555 ft 280 kts 128°
2026-05-08 08:07 50.06812 14.54248 9257 ft 279 kts 128°
2026-05-08 08:07 50.05642 14.56645 8959 ft 277 kts 128°
2026-05-08 08:08 50.04480 14.59027 8659 ft 276 kts 128°
2026-05-08 08:08 50.03321 14.61399 8369 ft 275 kts 128°
2026-05-08 08:08 50.02166 14.63763 8094 ft 274 kts 128°
2026-05-08 08:08 50.01014 14.66115 7822 ft 272 kts 128°
2026-05-08 08:09 49.99882 14.68422 7533 ft 271 kts 129°
2026-05-08 08:09 49.98452 14.70267 7203 ft 269 kts 158°
2026-05-08 08:09 49.96645 14.70773 6897 ft 264 kts 186°
2026-05-08 08:09 49.94923 14.69927 6604 ft 260 kts 213°
2026-05-08 08:10 49.93661 14.68007 6429 ft 252 kts 240°
2026-05-08 08:10 49.93093 14.65515 6263 ft 243 kts 265°
2026-05-08 08:10 49.93212 14.62956 6143 ft 235 kts 285°
2026-05-08 08:10 49.93872 14.60719 6101 ft 222 kts 301°
2026-05-08 08:11 49.94690 14.58776 6022 ft 208 kts 303°
2026-05-08 08:11 49.95474 14.56972 5918 ft 195 kts 303°
2026-05-08 08:11 49.96203 14.55279 5806 ft 182 kts 303°
2026-05-08 08:11 49.96886 14.53676 5620 ft 176 kts 301°
2026-05-08 08:12 49.97548 14.52090 5369 ft 174 kts 304°
2026-05-08 08:12 49.98261 14.50570 5010 ft 177 kts 306°
2026-05-08 08:12 49.99000 14.49025 4670 ft 173 kts 306°
2026-05-08 08:12 49.99705 14.47560 4411 ft 166 kts 306°
2026-05-08 08:13 50.00370 14.46179 4191 ft 155 kts 306°
2026-05-08 08:13 50.01003 14.44861 3981 ft 148 kts 307°
2026-05-08 08:13 50.01620 14.43579 3771 ft 149 kts 307°
2026-05-08 08:13 50.02245 14.42280 3569 ft 151 kts 307°
2026-05-08 08:14 50.02874 14.40969 3395 ft 149 kts 308°
2026-05-08 08:14 50.03508 14.39673 3166 ft 153 kts 308°
2026-05-08 08:14 50.04144 14.38343 2975 ft 153 kts 308°
2026-05-08 08:14 50.04777 14.37005 2746 ft 154 kts 308°
2026-05-08 08:15 50.05418 14.35683 2563 ft 153 kts 308°
2026-05-08 08:15 50.06077 14.34337 2307 ft 159 kts 308°
2026-05-08 08:15 50.06728 14.32976 2113 ft 159 kts 308°
2026-05-08 08:15 50.07390 14.31605 1821 ft 157 kts 307°
2026-05-08 08:16 50.08034 14.30256 1625 ft 150 kts 308°
2026-05-08 08:16 50.08660 14.28972 1402 ft 146 kts 306°
2026-05-08 08:16 50.09250 14.27739 1237 ft 141 kts 307°